Weather in Cheremkhovo

Russia / Irkutsk Oblast     53°08′12″N   103°05′24″E
temp.,
°C
wind,
m/s
gust,
m/s
humid.,
%
clouds,
%
prec.,
mm/h
press.,
hPa
HPBL,
m
18 april, sun
sun1823:00−1nnw71283100 1.6 10181069
02:00−2nw71069100 1.6 10211008
05:00−3nw6974100 0.0 1023888
08:00−4nnw5665100 0.0 10271081
11:00−2nnw22465 0.0 10261147
14:00+1ese333678 0.0 10221284
17:00+3ese4432100 0.0 10191328
20:00+2ese3541100 0.0 101891
19 april, mon
mon1923:00+1se51244100 0.0 1018310
02:00−1sse3757100 0.0 1018239
05:00−2sse236299 0.0 101869
08:000se5850100 0.0 1016320
11:00+5sse7104389 0.0 1011606
14:00+12sse8113580 0.0 1005959
17:00+17sw712215 0.0 9992738
20:00+12s5936100 0.0 1000133
20 april, tue
tue2023:00+4n91468100 0.0 1009758
02:00−1nnw71452100 0.0 10141029
05:00−3nnw5953100 0.0 10171014
08:00−4n3470100 0.0 1018870
11:00−2nne5564100 0.2 10181115
14:00−3nne5571100 0.8 1018920
17:00−3nne4575100 0.8 1019659
20:00−2ne2362100 0.9 1019461
21 april, wed
wed2123:00−3nw3470100 0.0 1020194
02:00−3n3768100 0.1 1021713
05:00−3nnw3653100 0.0 1023893
08:00−4nnw4549100 0.0 1024871
11:00−3nnw3446100 0.0 10251215
14:00−1nw3439100 0.0 10241532
17:00+1nnw2333100 0.0 10241917
20:00−1e114137 0.0 102610
22 april, thu
thu2223:00−3ssw11495 0.0 102710
02:00−4ne11522 0.0 102810
05:00−4e22495 0.0 102834
08:00−2ese3544100 0.0 1029352
11:00+1e3431100 0.0 10291490
14:00+3ne3327100 0.0 10291814
17:00+3nne4429100 0.0 10291828
20:00+2nnw3541100 0.0 1031136